CDT,Max TemperatureF,Mean TemperatureF,Min TemperatureF,Max Dew PointF,MeanDew PointF,Min DewpointF,Max Humidity, Mean Humidity, Min Humidity, Max Sea Level PressureIn, Mean Sea Level PressureIn, Min Sea Level PressureIn, Max VisibilityMiles, Mean VisibilityMiles, Min VisibilityMiles, Max Wind SpeedMPH, Mean Wind SpeedMPH, Max Gust SpeedMPH,PrecipitationIn, CloudCover, Events, WindDirDegrees
2011-9-1,100,88,76,73,70,65,79,61,32,29.96,29.90,29.85,10,10,10,20,11,26,0.00,0,,188
2011-9-2,97,84,73,72,68,64,81,61,36,29.94,29.90,29.86,10,10,9,16,9,,0.00,0,,176
2011-9-3,95,82,70,73,71,68,100,83,42,29.93,29.88,29.81,10,9,2,21,9,32,0.41,3,Rain-Thunderstorm,23
2011-9-4,74,65,55,70,60,47,100,81,39,30.11,30.01,29.94,10,9,3,20,9,28,0.28,4,Rain-Thunderstorm,4
2011-9-5,71,60,50,54,50,48,99,74,45,30.16,30.12,30.08,10,10,10,17,9,24,0.00,0,,15
2011-9-6,72,58,43,51,47,43,99,71,39,30.20,30.15,30.12,10,10,10,12,6,,0.00,0,,18
2011-9-7,74,60,45,53,49,45,99,73,41,30.26,30.21,30.16,10,10,8,13,4,,0.00,0,,10
2011-9-8,77,62,48,55,52,48,99,72,43,30.23,30.15,30.05,10,10,10,12,4,20,0.00,0,,343
2011-9-9,79,67,55,63,58,54,100,76,47,30.04,29.98,29.92,10,10,6,17,6,23,0.02,2,Rain-Thunderstorm,327
2011-9-10,77,66,55,68,61,55,100,84,57,30.02,29.99,29.95,10,9,2,13,4,18,0.12,4,Rain-Thunderstorm,9
2011-9-11,82,68,54,70,59,54,100,88,47,30.12,30.07,30.04,10,5,0,7,1,,0.00,1,Fog,120
2011-9-12,89,74,58,64,59,53,100,67,29,30.09,30.01,29.91,10,10,8,14,7,,0.00,0,,196
2011-9-13,84,72,61,64,58,53,83,61,46,29.97,29.93,29.88,10,10,8,13,7,,0.00,1,Thunderstorm,37
2011-9-14,66,59,51,55,52,38,89,74,54,30.28,30.09,29.95,10,10,7,18,11,25,0.02,5,Rain,21
2011-9-15,59,50,40,45,38,33,86,65,40,30.40,30.33,30.27,10,10,7,10,7,17,0.00,2,,59
2011-9-16,60,54,50,51,47,44,94,77,61,30.28,30.24,30.17,10,10,10,14,4,,0.00,8,Rain,133
2011-9-17,63,57,52,59,56,50,100,97,86,30.25,30.12,30.04,10,9,3,13,8,,0.08,8,Rain,126
2011-9-18,65,60,56,65,61,57,100,100,94,30.06,29.98,29.92,10,8,2,18,6,25,0.22,7,Rain,150
2011-9-19,78,68,57,63,60,52,100,90,42,30.10,30.02,29.99,10,7,1,13,5,,0.00,6,,318
2011-9-20,80,66,52,60,55,51,100,71,39,30.10,29.99,29.92,10,10,9,17,7,,0.00,0,,183
2011-9-21,73,64,54,57,50,43,97,64,33,30.16,30.10,29.99,10,10,10,14,8,18,0.00,4,Rain,287
2011-9-22,71,60,49,54,49,42,99,78,36,30.20,30.14,30.09,10,10,7,8,5,,0.00,2,,257
2011-9-23,71,61,51,55,52,46,100,81,52,30.12,30.06,29.98,10,10,10,9,4,16,0.00,4,,29
2011-9-24,70,57,44,47,44,41,99,68,39,30.00,29.96,29.89,10,10,10,10,6,,0.00,1,,64
2011-9-25,68,53,38,46,42,38,100,71,38,29.94,29.89,29.84,10,10,6,13,6,18,0.00,0,,36
2011-9-26,73,58,43,47,44,41,99,64,33,29.91,29.86,29.81,10,10,10,17,6,30,0.00,1,,269
2011-9-27,75,63,51,57,52,45,98,69,49,29.92,29.88,29.83,10,10,10,14,8,18,0.00,2,,287
2011-9-28,84,69,54,56,53,48,99,68,28,29.91,29.86,29.81,10,10,10,9,5,,0.00,1,,264
2011-9-29,82,66,51,54,43,25,99,53,14,30.11,29.96,29.86,10,10,9,25,8,36,0.00,0,,306
2011-9-30,73,60,47,45,40,38,79,52,29,30.25,30.18,30.12,10,10,10,15,7,17,0.00,0,,320